User: anonymous   Login
Location: Syracuse
(43.0480°N, 76.1480°W)
Time: 15:12:27
(UTC-04:00)
Language:

Cosmos 1140 Rocket - Orbit

View from above orbital plane
View from above orbital plane
View from above satellite
View from above satellite

Ground track
Ground track

The orbit data is extracted from the following two-line orbital elements,

1 11574U 79089B   15085.50462534  .00000171  00000-0  61951-4 0  9994
2 11574 074.0680 280.7735 0015404 030.0823 330.1214 14.40425600859975
Epoch (UTC): 26 March 2015 12:06:39
Eccentricity: 0.0015404
inclination: 74.0680°
perigee height: 746 km
apogee height: 768 km
right ascension of ascending node: 280.7735°
argument of perigee: 30.0823°
revolutions per day: 14.40425600
mean anomaly at epoch: 330.1214°
orbit number at epoch: 85997

The dashed part of the orbit path shows where the satellite is in the earth's shadow,  

DLR